Overview Statistics Trail Chart Weather Telemetry Raw packets
 

This is the latest recevied weather packets stored in our database for station/object N4BBA. If no packets are shown the sender has not sent any weather packets the latest 10 day(s).

<< 30 31 32 33 34 35 36 >>
Time Temp. Humidity Pressure Rain* Wind** Luminosity Snow
1777503592 24.44° C 66% 1007.1 hPa 0 mm - 50 W/m² -
1777503290 25° C 65% 1006.9 hPa 0 mm - 31 W/m² -
1777502986 25.56° C 64% 1007 hPa 0 mm - 68 W/m² -
1777502684 25.56° C 64% 1007.1 hPa 0 mm - 121 W/m² -
1777502380 25.56° C 65% 1007.3 hPa 0 mm - 141 W/m² -
1777502077 25.56° C 65% 1007.2 hPa 0 mm - 130 W/m² -
1777501774 25° C 65% 1007.5 hPa 0 mm - 150 W/m² -
1777501472 25.56° C 64% 1007.3 hPa 0 mm - 95 W/m² -
1777501168 25.56° C 64% 1007.4 hPa 0 mm - 194 W/m² -
1777500867 26.11° C 64% 1007.3 hPa 0 mm - 230 W/m² -
1777500563 25.56° C 65% 1007.4 hPa 0 mm - 247 W/m² -
1777500260 25.56° C 65% 1007.3 hPa 0 mm - 258 W/m² -
1777499956 25.56° C 67% 1007.2 hPa 0 mm - 249 W/m² -
1777499653 25.56° C 68% 1006.9 hPa 0 mm - 254 W/m² -
1777499350 24.44° C 70% 1007.3 hPa 0 mm - 279 W/m² -
1777499048 23.89° C 71% 1007.4 hPa 0 mm - 290 W/m² -
1777498744 23.89° C 71% 1007.6 hPa 0 mm - 90 W/m² -
1777498441 24.44° C 70% 1007.5 hPa 0 mm - 115 W/m² -
1777498138 24.44° C 70% 1007.5 hPa 0 mm - 219 W/m² -
1777497835 24.44° C 70% 1007.4 hPa 0 mm - 408 W/m² -
1777497531 24.44° C 70% 1007.4 hPa 0 mm - 233 W/m² -
1777497227 25° C 69% 1007.6 hPa 0 mm - 182 W/m² -
1777496924 24.44° C 70% 1007.5 hPa 0 mm - 555 W/m² -
1777496621 24.44° C 70% 1007.7 hPa 0 mm - 207 W/m² -
1777496317 23.89° C 71% 1007.9 hPa 0 mm - 284 W/m² -

* Rain latest hour (hover to see other rain measurements)
** Current wind speed in m/s (hover to see current wind gust speed)